Weather History for KPEQ - November, 2011

Change the Weather History Date:

Tuesday, November 15, 2011

  Actual Average Record
Temperature  
Mean Temperature 58 °F -  
Max Temperature 75 °F 70 °F 89 °F (1981)
Min Temperature 41 °F 34 °F 12 °F (1976)
Degree Days  
Heating Degree Days 7    
Growing Degree Days 8 (Base 50)    
Moisture  
Dew Point 35 °F    
Average Humidity 42    
Maximum Humidity 84    
Minimum Humidity 16    
Precipitation  
Precipitation 0.00 in - - ()
Sea Level Pressure  
Sea Level Pressure 29.86 in    
Wind  
Wind Speed 9 mph (West)    
Max Wind Speed 18 mph    
Max Gust Speed 25 mph    
Visibility 10 miles    
Events      
Averages and records for this station are not official NWS values.
T = Trace of Precipitation, MM = Missing Value Source: NWS Daily Summary

Daily Weather History Graph

Daily Weather History Graph

Search for Another Location

Airport or City:

Trip Planner

Search our weather history database for the weather conditions in past years. The results will help you decide how hot, cold, wet, or windy it might be!

Date:

Astronomy

Nov. 15, 2011 Rise Set
Actual Time 7:21 AM CST 5:55 PM CST
Civil Twilight 6:55 AM CST 6:21 PM CST
Nautical Twilight 6:26 AM CST 6:50 PM CST
Astronomical Twilight 5:57 AM CST 7:19 PM CST
Moon 10:07 PM CST (11/15) 11:20 AM CST (11/15)
Length of Visible Light 11h 25m
Length of Day
10h 34m
Waning Gibbous, 79% of the Moon is Illuminated
Nov 15
Waning Gibbous
Nov 18
Last Quarter
Nov 25
New
Dec 2
First Quarter
Dec 10
Full

Hourly Weather History & Observations

Time (CST) Temp. Windchill Dew Point Humidity Pressure Visibility Wind Dir Wind Speed Gust Speed Precip Events Conditions
12:15 AM 56.3 °F - 42.3 °F 59% 29.85 in 10.0 mi SW 8.1 mph - N/A   Clear
12:35 AM 55.9 °F - 41.9 °F 59% 29.85 in 10.0 mi SW 8.1 mph - N/A   Clear
12:55 AM 55.4 °F - 41.9 °F 60% 29.85 in 10.0 mi WSW 8.1 mph - N/A   Clear
1:15 AM 55.4 °F - 42.4 °F 62% 29.85 in 10.0 mi SW 9.2 mph - N/A   Clear
1:35 AM 55.0 °F - 42.8 °F 63% 29.84 in 10.0 mi West 9.2 mph - N/A   Clear
1:55 AM 54.9 °F - 43.2 °F 65% 29.84 in 10.0 mi West 10.4 mph - N/A   Clear
2:35 AM 52.5 °F - 42.4 °F 69% 29.84 in 10.0 mi West 8.1 mph - N/A   Clear
2:55 AM 52.2 °F - 42.4 °F 69% 29.84 in 10.0 mi West 9.2 mph - N/A   Clear
3:15 AM 51.4 °F - 42.3 °F 71% 29.85 in 10.0 mi West 8.1 mph - N/A   Clear
3:35 AM 51.1 °F - 42.1 °F 71% 29.85 in 10.0 mi WSW 8.1 mph - N/A   Clear
3:55 AM 50.9 °F - 41.9 °F 71% 29.85 in 10.0 mi WSW 9.2 mph - N/A   Clear
4:35 AM 50.4 °F - 41.7 °F 72% 29.84 in 10.0 mi WSW 6.9 mph - N/A   Clear
4:55 AM 49.6 °F - 41.9 °F 75% 29.84 in 10.0 mi SW 6.9 mph - N/A   Clear
5:15 AM 49.1 °F - 41.7 °F 76% 29.84 in 10.0 mi WSW 4.6 mph - N/A   Clear
5:35 AM 47.5 °F - 40.8 °F 78% 29.84 in 10.0 mi West 6.9 mph - N/A   Clear
5:55 AM 46.9 °F - 40.8 °F 79% 29.85 in 10.0 mi WNW 6.9 mph - N/A   Clear
7:15 AM 41.7 °F 39.8 °F 37.2 °F 84% 29.88 in 10.0 mi South 3.5 mph - N/A   Clear
7:35 AM 41.9 °F - 37.0 °F 83% 29.88 in 10.0 mi Calm Calm - N/A   Clear
8:15 AM 45.3 °F 43.0 °F 39.4 °F 80% 29.90 in 10.0 mi North 4.6 mph - N/A   Clear
9:15 AM 56.3 °F - 43.3 °F 62% 29.93 in 10.0 mi West 10.4 mph - N/A   Clear
9:35 AM 59.0 °F - 42.1 °F 53% 29.93 in 10.0 mi West 15.0 mph - N/A   Clear
9:55 AM 61.5 °F - 39.6 °F 44% 29.93 in 10.0 mi West 12.7 mph - N/A   Clear
10:15 AM 63.1 °F - 39.6 °F 42% 29.93 in 10.0 mi West 12.7 mph - N/A   Clear
10:35 AM 64.9 °F - 39.2 °F 39% 29.94 in 10.0 mi WNW 13.8 mph - N/A   Clear
10:55 AM 66.0 °F - 38.7 °F 37% 29.93 in 10.0 mi West 13.8 mph - N/A   Clear
11:15 AM 67.1 °F - 37.9 °F 34% 29.93 in 10.0 mi West 11.5 mph 16.1 mph N/A   Clear
11:35 AM 68.2 °F - 37.0 °F 32% 29.92 in 10.0 mi WNW 11.5 mph - N/A   Clear
11:55 AM 68.7 °F - 36.3 °F 30% 29.91 in 10.0 mi WNW 5.8 mph 9.2 mph N/A   Clear
12:15 PM 69.4 °F - 35.2 °F 28% 29.90 in 10.0 mi NNW 10.4 mph - N/A   Clear
12:35 PM 70.0 °F - 34.5 °F 27% 29.89 in 10.0 mi WNW 5.8 mph - N/A   Clear
12:55 PM 70.2 °F - 33.8 °F 26% 29.88 in 10.0 mi West 8.1 mph 16.1 mph N/A   Clear
1:15 PM 70.9 °F - 33.8 °F 26% 29.86 in 10.0 mi WNW 6.9 mph - N/A   Clear
1:35 PM 71.2 °F - 34.3 °F 26% 29.85 in 10.0 mi Calm Calm - N/A   Clear
1:55 PM 72.1 °F - 33.8 °F 24% 29.84 in 10.0 mi West 5.8 mph - N/A   Clear
2:15 PM 73.6 °F - 29.8 °F 20% 29.84 in 10.0 mi West 12.7 mph 18.4 mph N/A   Clear
2:35 PM 74.1 °F - 28.9 °F 19% 29.83 in 10.0 mi WSW 13.8 mph - N/A   Clear
2:55 PM 74.5 °F - 29.1 °F 19% 29.82 in 10.0 mi West 15.0 mph 21.9 mph N/A   Clear
3:15 PM 74.5 °F - 29.5 °F 19% 29.81 in 10.0 mi West 16.1 mph 19.6 mph N/A   Clear
3:35 PM 75.0 °F - 28.9 °F 18% 29.81 in 10.0 mi West 17.3 mph 21.9 mph N/A   Clear
3:55 PM 75.0 °F - 27.0 °F 17% 29.80 in 10.0 mi West 12.7 mph 25.3 mph N/A   Clear
4:15 PM 74.5 °F - 25.5 °F 16% 29.80 in 10.0 mi West 15.0 mph 23.0 mph N/A   Clear
4:35 PM 73.9 °F - 25.0 °F 16% 29.81 in 10.0 mi West 17.3 mph 23.0 mph N/A   Clear
4:55 PM 73.2 °F - 25.0 °F 17% 29.82 in 10.0 mi West 18.4 mph 24.2 mph N/A   Clear
5:15 PM 72.3 °F - 25.9 °F 18% 29.83 in 10.0 mi West 17.3 mph 21.9 mph N/A   Clear
5:35 PM 71.1 °F - 26.6 °F 19% 29.83 in 10.0 mi West 17.3 mph 21.9 mph N/A   Clear
5:55 PM 69.3 °F - 26.8 °F 20% 29.83 in 10.0 mi West 12.7 mph - N/A   Clear
6:15 PM 67.6 °F - 26.6 °F 21% 29.84 in 10.0 mi West 11.5 mph - N/A   Clear
6:35 PM 66.4 °F - 26.1 °F 22% 29.84 in 10.0 mi West 8.1 mph - N/A   Clear
6:55 PM 64.9 °F - 25.7 °F 23% 29.84 in 10.0 mi West 11.5 mph - N/A   Clear
7:15 PM 64.9 °F - 25.2 °F 22% 29.86 in 10.0 mi West 13.8 mph - N/A   Clear
7:35 PM 64.2 °F - 24.8 °F 22% 29.87 in 10.0 mi West 11.5 mph - N/A   Clear
7:55 PM 63.1 °F - 25.0 °F 23% 29.88 in 10.0 mi West 11.5 mph - N/A   Clear
8:15 PM 61.0 °F - 25.0 °F 25% 29.88 in 10.0 mi WSW 9.2 mph - N/A   Clear
8:35 PM 59.5 °F - 25.3 °F 27% 29.89 in 10.0 mi WSW 10.4 mph - N/A   Clear
8:55 PM 59.2 °F - 27.3 °F 30% 29.89 in 10.0 mi WSW 10.4 mph - N/A   Clear
9:15 PM 59.7 °F - 29.8 °F 32% 29.89 in 10.0 mi WSW 12.7 mph - N/A   Clear
9:35 PM 60.4 °F - 30.7 °F 33% 29.89 in 10.0 mi WSW 11.5 mph - N/A   Clear
9:55 PM 59.9 °F - 30.7 °F 33% 29.90 in 10.0 mi WSW 11.5 mph - N/A   Clear
10:15 PM 58.5 °F - 30.9 °F 35% 29.90 in 10.0 mi WSW 9.2 mph - N/A   Clear
10:35 PM 56.5 °F - 30.9 °F 38% 29.90 in 10.0 mi WSW 8.1 mph - N/A   Clear
10:55 PM 54.7 °F - 30.9 °F 40% 29.91 in 10.0 mi WSW 8.1 mph - N/A   Clear
11:15 PM 53.6 °F - 30.9 °F 42% 29.91 in 10.0 mi WSW 5.8 mph - N/A   Clear
11:35 PM 53.4 °F - 31.6 °F 44% 29.92 in 10.0 mi SW 6.9 mph - N/A   Clear